Location: Aalen
(48.8330°N, 10.1000°E)
Time: 01:50:41
(UTC+01:00)

BlueWalker 3 - Pass Details

Date: 08 December 2022
Orbit: 499 x 517 km, 53.2° (Epoch: 26 January)

Event Time Altitude Azimuth Distance (km) Brightness Sun altitude
Rises 18:19:17 0° 295° (WNW) 2,633 6.4 -18.2°
Reaches altitude 10° 18:21:30 10° 294° (WNW) 1,740 5.4 -18.5°
Maximum altitude 18:25:25 75° 210° (SSW) 533 2.0 -19.1°
Enters shadow 18:26:45 39° 133° (SE) 771 2.6 -19.4°
